Tracking 29892 objects as of 21-Nov-2024
HD Live streaming from Space Station
objects crossing your sky now

STARLINK-5222

Track STARLINK-5222 now!
10-day predictions
STARLINK-5222 is classified as:


NORAD ID: 54068
Int'l Code: 2022-136T
Perigee: 546.0 km
Apogee: 547.8 km
Inclination: 53.2 °
Period: 95.4 minutes
Semi major axis: 6917 km
RCS: Unknown
Launch date: October 20, 2022
Source: United States (US)
Launch site: AIR FORCE EASTERN TEST RANGE (AFETR)
Your satellite tracking list
Your tracking list is empty




NASA's NSSDC Master Catalog

Two Line Element Set (TLE):
1 54068U 22136T   24325.98730009  .00004594  00000-0  30651-3 0  9999
2 54068  53.2173 310.4616 0001325 100.9885 259.1256 15.08842223115810
Source of the keplerian elements: AFSPC